Location: Stara Lesna
(49.1528°N, 20.2911°E)
Time: 03:24:11
(UTC+02:00)

Cosmos 2251 Rocket - Pass Details

Date: 13 July 2020
Orbit: 764 x 792 km, 74.0° (Epoch: 11 August)

Event Time Altitude Azimuth Distance (km) Brightness Sun altitude
Exits shadow 02:25:34 20° 235° (SW) 1,694 4.8 -15.6°
Maximum altitude 02:28:52 47° 300° (WNW) 1,013 4.1 -15.4°
Drops below altitude 10° 02:33:56 10° 14° (NNE) 2,318 7.3 -15.0°
Sets 02:36:25 0° 21° (NNE) 3,251 8.6 -14.8°
